Year,Month,Day,Hour,Minute,Value (Times are PST for windgust in km/hr)
2017,10,01,01,03,1.60
2017,10,01,01,15,1.60
2017,10,01,01,33,1.60
2017,10,01,01,43,1.60
2017,10,01,01,44,1.60
2017,10,01,01,45,1.60
2017,10,01,01,46,1.60
2017,10,01,01,47,1.60
2017,10,01,01,51,1.60
2017,10,01,01,52,1.60
2017,10,01,01,53,1.60
2017,10,01,01,54,1.60
2017,10,01,01,55,1.60
2017,10,01,01,56,1.60
2017,10,01,01,57,1.60
2017,10,01,01,58,1.60
2017,10,01,02,09,1.60
2017,10,01,02,10,1.60
2017,10,01,02,11,1.60
2017,10,01,02,12,1.60
2017,10,01,02,13,1.60
2017,10,01,02,15,1.60
2017,10,01,02,21,1.60
2017,10,01,02,22,1.60
2017,10,01,02,23,1.60
2017,10,01,02,30,3.20
2017,10,01,02,31,1.60
2017,10,01,02,32,1.60
2017,10,01,02,33,1.60
2017,10,01,02,34,1.60
2017,10,01,02,35,3.20
2017,10,01,02,36,1.60
2017,10,01,02,37,1.60
2017,10,01,02,49,1.60
2017,10,01,02,50,1.60
2017,10,01,02,51,1.60
2017,10,01,02,53,3.20
2017,10,01,02,54,1.60
2017,10,01,03,02,1.60
2017,10,01,03,03,1.60
2017,10,01,03,04,1.60
2017,10,01,03,05,1.60
2017,10,01,03,10,1.60
2017,10,01,03,11,1.60
2017,10,01,03,12,1.60
2017,10,01,03,13,1.60
2017,10,01,03,47,1.60
2017,10,01,03,50,1.60
2017,10,01,03,54,1.60
2017,10,01,03,59,1.60
2017,10,01,04,00,1.60
2017,10,01,04,01,1.60
2017,10,01,04,14,1.60
2017,10,01,04,15,3.20
2017,10,01,04,16,1.60
2017,10,01,04,17,1.60
2017,10,01,04,21,1.60
2017,10,01,04,22,1.60
2017,10,01,04,23,1.60
2017,10,01,04,24,3.20
2017,10,01,04,25,1.60
2017,10,01,04,35,1.60
2017,10,01,04,36,1.60
2017,10,01,04,39,1.60
2017,10,01,04,40,1.60
2017,10,01,04,41,3.20
2017,10,01,04,42,3.20
2017,10,01,04,44,1.60
2017,10,01,04,45,1.60
2017,10,01,04,46,1.60
2017,10,01,04,49,1.60
2017,10,01,04,50,1.60
2017,10,01,04,54,1.60
2017,10,01,04,55,1.60
2017,10,01,05,05,1.60
2017,10,01,05,17,1.60
2017,10,01,05,18,1.60
2017,10,01,05,22,1.60
2017,10,01,05,23,1.60
2017,10,01,05,24,1.60
2017,10,01,05,25,1.60
2017,10,01,05,26,1.60
2017,10,01,05,32,1.60
2017,10,01,05,43,1.60
2017,10,01,05,47,1.60
2017,10,01,05,48,1.60
2017,10,01,05,49,1.60
2017,10,01,05,50,1.60
2017,10,01,05,54,1.60
2017,10,01,05,55,1.60
2017,10,01,05,58,1.60
2017,10,01,05,59,1.60
2017,10,01,06,07,1.60
2017,10,01,06,13,1.60
2017,10,01,06,14,3.20
2017,10,01,06,15,4.80
2017,10,01,06,16,3.20
2017,10,01,06,20,1.60
2017,10,01,06,21,3.20
2017,10,01,06,22,1.60
2017,10,01,06,23,1.60
2017,10,01,06,24,1.60
2017,10,01,06,25,1.60
2017,10,01,06,26,1.60
2017,10,01,06,27,3.20
2017,10,01,06,29,1.60
2017,10,01,06,30,1.60
2017,10,01,06,31,3.20
2017,10,01,06,33,1.60
2017,10,01,06,34,3.20
2017,10,01,06,35,3.20
2017,10,01,06,36,1.60
2017,10,01,06,37,1.60
2017,10,01,06,38,1.60
2017,10,01,06,39,1.60
2017,10,01,06,49,1.60
2017,10,01,06,52,1.60
2017,10,01,07,01,1.60
2017,10,01,07,03,1.60
2017,10,01,07,04,1.60
2017,10,01,07,05,3.20
2017,10,01,07,06,1.60
2017,10,01,07,07,1.60
2017,10,01,07,08,1.60
2017,10,01,07,11,1.60
2017,10,01,07,12,1.60
2017,10,01,07,13,1.60
2017,10,01,07,14,1.60
2017,10,01,07,15,1.60
2017,10,01,07,52,1.60
2017,10,01,07,53,3.20
2017,10,01,07,54,1.60
2017,10,01,07,55,1.60
2017,10,01,07,56,1.60
2017,10,01,07,58,1.60
2017,10,01,07,59,3.20
2017,10,01,08,00,3.20
2017,10,01,08,01,3.20
2017,10,01,08,02,3.20
2017,10,01,08,03,4.80
2017,10,01,08,04,1.60
2017,10,01,08,05,3.20
2017,10,01,08,06,3.20
2017,10,01,08,07,1.60
2017,10,01,08,08,3.20
2017,10,01,08,10,1.60
2017,10,01,08,11,3.20
2017,10,01,08,12,1.60
2017,10,01,08,13,3.20
2017,10,01,08,14,1.60
2017,10,01,08,15,1.60
2017,10,01,08,16,1.60
2017,10,01,08,17,1.60
2017,10,01,08,18,1.60
2017,10,01,08,19,1.60
2017,10,01,08,23,1.60
2017,10,01,08,24,1.60
2017,10,01,08,25,1.60
2017,10,01,08,29,1.60
2017,10,01,08,30,1.60
2017,10,01,08,31,1.60
2017,10,01,08,32,1.60
2017,10,01,08,33,1.60
2017,10,01,08,34,1.60
2017,10,01,08,35,3.20
2017,10,01,08,36,3.20
2017,10,01,08,37,1.60
2017,10,01,08,38,1.60
2017,10,01,08,41,1.60
2017,10,01,08,42,1.60
2017,10,01,08,43,4.80
2017,10,01,08,44,1.60
2017,10,01,08,45,3.20
2017,10,01,08,46,1.60
2017,10,01,08,47,6.40
2017,10,01,08,48,3.20
2017,10,01,08,49,1.60
2017,10,01,08,51,1.60
2017,10,01,08,58,1.60
2017,10,01,08,59,3.20
2017,10,01,09,00,1.60
2017,10,01,09,01,1.60
2017,10,01,09,03,1.60
2017,10,01,09,04,3.20
2017,10,01,09,05,6.40
2017,10,01,09,06,6.40
2017,10,01,09,07,3.20
2017,10,01,09,08,3.20
2017,10,01,09,09,6.40
2017,10,01,09,10,6.40
2017,10,01,09,11,1.60
2017,10,01,09,12,8.10
2017,10,01,09,13,3.20
2017,10,01,09,14,6.40
2017,10,01,09,15,6.40
2017,10,01,09,16,3.20
2017,10,01,09,17,3.20
2017,10,01,09,18,3.20
2017,10,01,09,19,1.60
2017,10,01,09,20,3.20
2017,10,01,09,21,3.20
2017,10,01,09,22,1.60
2017,10,01,09,23,1.60
2017,10,01,09,24,3.20
2017,10,01,09,25,1.60
2017,10,01,09,26,1.60
2017,10,01,09,27,3.20
2017,10,01,09,28,1.60
2017,10,01,09,29,3.20
2017,10,01,09,30,6.40
2017,10,01,09,31,3.20
2017,10,01,09,32,3.20
2017,10,01,09,33,1.60
2017,10,01,09,35,1.60
2017,10,01,09,36,3.20
2017,10,01,09,37,3.20
2017,10,01,09,38,3.20
2017,10,01,09,39,1.60
2017,10,01,09,40,1.60
2017,10,01,09,41,6.40
2017,10,01,09,42,3.20
2017,10,01,09,43,3.20
2017,10,01,09,44,3.20
2017,10,01,09,45,1.60
2017,10,01,09,46,6.40
2017,10,01,09,47,6.40
2017,10,01,09,48,6.40
2017,10,01,09,49,6.40
2017,10,01,09,50,3.20
2017,10,01,09,51,1.60
2017,10,01,09,52,6.40
2017,10,01,09,53,3.20
2017,10,01,09,54,6.40
2017,10,01,09,55,3.20
2017,10,01,09,56,3.20
2017,10,01,09,57,6.40
2017,10,01,09,58,3.20
2017,10,01,09,59,3.20
2017,10,01,10,00,6.40
2017,10,01,10,01,6.40
2017,10,01,10,02,3.20
2017,10,01,10,03,3.20
2017,10,01,10,04,3.20
2017,10,01,10,05,6.40
2017,10,01,10,06,6.40
2017,10,01,10,07,3.20
2017,10,01,10,08,1.60
2017,10,01,10,09,3.20
2017,10,01,10,10,6.40
2017,10,01,10,11,6.40
2017,10,01,10,12,8.10
2017,10,01,10,13,6.40
2017,10,01,10,14,6.40
2017,10,01,10,15,3.20
2017,10,01,10,16,3.20
2017,10,01,10,17,3.20
2017,10,01,10,18,6.40
2017,10,01,10,19,3.20
2017,10,01,10,20,6.40
2017,10,01,10,21,3.20
2017,10,01,10,22,1.60
2017,10,01,10,23,1.60
2017,10,01,10,24,6.40
2017,10,01,10,25,1.60
2017,10,01,10,26,6.40
2017,10,01,10,27,3.20
2017,10,01,10,28,3.20
2017,10,01,10,29,6.40
2017,10,01,10,30,1.60
2017,10,01,10,31,1.60
2017,10,01,10,32,3.20
2017,10,01,10,33,6.40
2017,10,01,10,34,6.40
2017,10,01,10,35,3.20
2017,10,01,10,36,1.60
2017,10,01,10,37,3.20
2017,10,01,10,38,6.40
2017,10,01,10,39,6.40
2017,10,01,10,40,6.40
2017,10,01,10,41,6.40
2017,10,01,10,42,6.40
2017,10,01,10,43,6.40
2017,10,01,10,44,6.40
2017,10,01,10,45,3.20
2017,10,01,10,46,8.10
2017,10,01,10,47,8.10
2017,10,01,10,48,3.20
2017,10,01,10,49,6.40
2017,10,01,10,50,6.40
2017,10,01,10,51,6.40
2017,10,01,10,52,6.40
2017,10,01,10,53,6.40
2017,10,01,10,54,8.10
2017,10,01,10,55,3.20
2017,10,01,10,56,3.20
2017,10,01,10,57,3.20
2017,10,01,10,58,1.60
2017,10,01,10,59,3.20
2017,10,01,11,00,6.40
2017,10,01,11,01,6.40
2017,10,01,11,02,3.20
2017,10,01,11,03,6.40
2017,10,01,11,04,6.40
2017,10,01,11,05,3.20
2017,10,01,11,06,3.20
2017,10,01,11,07,4.80
2017,10,01,11,08,3.20
2017,10,01,11,09,3.20
2017,10,01,11,10,3.20
2017,10,01,11,11,8.10
2017,10,01,11,12,6.40
2017,10,01,11,13,3.20
2017,10,01,11,14,8.10
2017,10,01,11,15,3.20
2017,10,01,11,16,3.20
2017,10,01,11,17,3.20
2017,10,01,11,18,1.60
2017,10,01,11,19,3.20
2017,10,01,11,20,9.60
2017,10,01,11,21,6.40
2017,10,01,11,22,6.40
2017,10,01,11,23,6.40
2017,10,01,11,24,6.40
2017,10,01,11,25,6.40
2017,10,01,11,26,8.10
2017,10,01,11,27,3.20
2017,10,01,11,28,3.20
2017,10,01,11,29,8.10
2017,10,01,11,30,6.40
2017,10,01,11,31,6.40
2017,10,01,11,32,3.20
2017,10,01,11,33,8.10
2017,10,01,11,34,3.20
2017,10,01,11,35,6.40
2017,10,01,11,36,6.40
2017,10,01,11,37,9.60
2017,10,01,11,38,6.40
2017,10,01,11,39,6.40
2017,10,01,11,40,3.20
2017,10,01,11,41,3.20
2017,10,01,11,42,3.20
2017,10,01,11,43,6.40
2017,10,01,11,44,6.40
2017,10,01,11,45,8.10
2017,10,01,11,46,8.10
2017,10,01,11,47,6.40
2017,10,01,11,48,11.30
2017,10,01,11,49,8.10
2017,10,01,11,50,6.40
2017,10,01,11,51,3.20
2017,10,01,11,52,6.40
2017,10,01,11,53,6.40
2017,10,01,11,54,1.60
2017,10,01,11,55,3.20
2017,10,01,11,56,3.20
2017,10,01,11,57,6.40
2017,10,01,11,58,6.40
2017,10,01,11,59,6.40
2017,10,01,12,00,6.40
2017,10,01,12,01,6.40
2017,10,01,12,02,1.60
2017,10,01,12,03,3.20
2017,10,01,12,04,6.40
2017,10,01,12,05,6.40
2017,10,01,12,06,3.20
2017,10,01,12,07,8.10
2017,10,01,12,08,3.20
2017,10,01,12,09,3.20
2017,10,01,12,10,6.40
2017,10,01,12,11,9.60
2017,10,01,12,12,6.40
2017,10,01,12,13,4.80
2017,10,01,12,14,9.60
2017,10,01,12,15,8.10
2017,10,01,12,16,8.10
2017,10,01,12,17,8.10
2017,10,01,12,18,8.10
2017,10,01,12,19,4.80
2017,10,01,12,20,6.40
2017,10,01,12,21,6.40
2017,10,01,12,22,6.40
2017,10,01,12,23,6.40
2017,10,01,12,24,6.40
2017,10,01,12,25,3.20
2017,10,01,12,26,3.20
2017,10,01,12,27,8.10
2017,10,01,12,28,3.20
2017,10,01,12,29,8.10
2017,10,01,12,30,3.20
2017,10,01,12,31,6.40
2017,10,01,12,32,3.20
2017,10,01,12,33,6.40
2017,10,01,12,34,3.20
2017,10,01,12,35,6.40
2017,10,01,12,36,6.40
2017,10,01,12,37,4.80
2017,10,01,12,38,3.20
2017,10,01,12,39,6.40
2017,10,01,12,40,8.10
2017,10,01,12,41,6.40
2017,10,01,12,42,11.30
2017,10,01,12,43,8.10
2017,10,01,12,44,6.40
2017,10,01,12,45,4.80
2017,10,01,12,46,3.20
2017,10,01,12,47,8.10
2017,10,01,12,48,3.20
2017,10,01,12,49,6.40
2017,10,01,12,50,3.20
2017,10,01,12,51,4.80
2017,10,01,12,52,8.10
2017,10,01,12,53,6.40
2017,10,01,12,54,3.20
2017,10,01,12,55,6.40
2017,10,01,12,56,8.10
2017,10,01,12,57,6.40
2017,10,01,12,58,4.80
2017,10,01,12,59,6.40
2017,10,01,13,00,6.40
2017,10,01,13,01,4.80
2017,10,01,13,02,11.30
2017,10,01,13,03,3.20
2017,10,01,13,04,4.80
2017,10,01,13,05,4.80
2017,10,01,13,06,4.80
2017,10,01,13,07,6.40
2017,10,01,13,08,8.10
2017,10,01,13,09,6.40
2017,10,01,13,10,1.60
2017,10,01,13,11,3.20
2017,10,01,13,12,6.40
2017,10,01,13,13,3.20
2017,10,01,13,14,1.60
2017,10,01,13,15,6.40
2017,10,01,13,16,6.40
2017,10,01,13,17,8.10
2017,10,01,13,18,3.20
2017,10,01,13,19,9.60
2017,10,01,13,20,6.40
2017,10,01,13,21,6.40
2017,10,01,13,22,6.40
2017,10,01,13,23,6.40
2017,10,01,13,24,3.20
2017,10,01,13,25,3.20
2017,10,01,13,26,3.20
2017,10,01,13,27,3.20
2017,10,01,13,28,3.20
2017,10,01,13,29,6.40
2017,10,01,13,30,3.20
2017,10,01,13,31,3.20
2017,10,01,13,32,3.20
2017,10,01,13,33,6.40
2017,10,01,13,34,3.20
2017,10,01,13,35,1.60
2017,10,01,13,36,3.20
2017,10,01,13,37,3.20
2017,10,01,13,38,3.20
2017,10,01,13,39,3.20
2017,10,01,13,40,3.20
2017,10,01,13,41,3.20
2017,10,01,13,42,6.40
2017,10,01,13,43,1.60
2017,10,01,13,44,1.60
2017,10,01,13,45,3.20
2017,10,01,13,46,3.20
2017,10,01,13,47,3.20
2017,10,01,13,48,3.20
2017,10,01,13,49,1.60
2017,10,01,13,50,1.60
2017,10,01,13,51,1.60
2017,10,01,13,52,1.60
2017,10,01,13,53,1.60
2017,10,01,13,54,3.20
2017,10,01,13,55,6.40
2017,10,01,13,56,6.40
2017,10,01,13,57,6.40
2017,10,01,13,58,1.60
2017,10,01,13,59,3.20
2017,10,01,14,00,6.40
2017,10,01,14,01,3.20
2017,10,01,14,02,1.60
2017,10,01,14,03,1.60
2017,10,01,14,04,1.60
2017,10,01,14,05,6.40
2017,10,01,14,06,3.20
2017,10,01,14,07,6.40
2017,10,01,14,08,3.20
2017,10,01,14,09,1.60
2017,10,01,14,10,3.20
2017,10,01,14,11,1.60
2017,10,01,14,12,1.60
2017,10,01,14,14,3.20
2017,10,01,14,15,1.60
2017,10,01,14,16,3.20
2017,10,01,14,17,1.60
2017,10,01,14,19,1.60
2017,10,01,14,20,3.20
2017,10,01,14,21,1.60
2017,10,01,14,22,1.60
2017,10,01,14,23,6.40
2017,10,01,14,24,3.20
2017,10,01,14,25,1.60
2017,10,01,14,26,1.60
2017,10,01,14,27,1.60
2017,10,01,14,28,3.20
2017,10,01,14,29,1.60
2017,10,01,14,30,3.20
2017,10,01,14,31,3.20
2017,10,01,14,32,1.60
2017,10,01,14,33,3.20
2017,10,01,14,34,3.20
2017,10,01,14,35,3.20
2017,10,01,14,36,3.20
2017,10,01,14,37,3.20
2017,10,01,14,38,6.40
2017,10,01,14,39,3.20
2017,10,01,14,40,1.60
2017,10,01,14,41,6.40
2017,10,01,14,42,6.40
2017,10,01,14,43,3.20
2017,10,01,14,44,6.40
2017,10,01,14,45,3.20
2017,10,01,14,46,6.40
2017,10,01,14,47,6.40
2017,10,01,14,48,6.40
2017,10,01,14,49,3.20
2017,10,01,14,50,6.40
2017,10,01,14,51,6.40
2017,10,01,14,52,8.10
2017,10,01,14,53,6.40
2017,10,01,14,54,9.60
2017,10,01,14,55,4.80
2017,10,01,14,56,4.80
2017,10,01,14,57,4.80
2017,10,01,14,58,3.20
2017,10,01,14,59,3.20
2017,10,01,15,00,4.80
2017,10,01,15,01,6.40
2017,10,01,15,02,8.10
2017,10,01,15,03,9.60
2017,10,01,15,04,8.10
2017,10,01,15,05,8.10
2017,10,01,15,06,6.40
2017,10,01,15,07,8.10
2017,10,01,15,08,6.40
2017,10,01,15,09,6.40
2017,10,01,15,10,6.40
2017,10,01,15,11,6.40
2017,10,01,15,12,4.80
2017,10,01,15,13,3.20
2017,10,01,15,14,3.20
2017,10,01,15,15,3.20
2017,10,01,15,16,3.20
2017,10,01,15,17,4.80
2017,10,01,15,18,3.20
2017,10,01,15,19,4.80
2017,10,01,15,20,4.80
2017,10,01,15,21,3.20
2017,10,01,15,22,3.20
2017,10,01,15,23,3.20
2017,10,01,15,24,6.40
2017,10,01,15,25,4.80
2017,10,01,15,26,1.60
2017,10,01,15,27,4.80
2017,10,01,15,28,4.80
2017,10,01,15,29,8.10
2017,10,01,15,30,3.20
2017,10,01,15,31,4.80
2017,10,01,15,32,6.40
2017,10,01,15,33,6.40
2017,10,01,15,34,3.20
2017,10,01,15,35,8.10
2017,10,01,15,36,8.10
2017,10,01,15,37,8.10
2017,10,01,15,38,6.40
2017,10,01,15,39,8.10
2017,10,01,15,40,3.20
2017,10,01,15,41,6.40
2017,10,01,15,42,3.20
2017,10,01,15,43,6.40
2017,10,01,15,44,3.20
2017,10,01,15,45,8.10
2017,10,01,15,46,8.10
2017,10,01,15,47,9.60
2017,10,01,15,48,6.40
2017,10,01,15,49,9.60
2017,10,01,15,50,8.10
2017,10,01,15,51,9.60
2017,10,01,15,52,6.40
2017,10,01,15,53,4.80
2017,10,01,15,54,12.90
2017,10,01,15,55,11.30
2017,10,01,15,56,11.30
2017,10,01,15,57,4.80
2017,10,01,15,58,11.30
2017,10,01,15,59,6.40
2017,10,01,16,00,8.10
2017,10,01,16,01,8.10
2017,10,01,16,02,6.40
2017,10,01,16,03,9.60
2017,10,01,16,04,11.30
2017,10,01,16,05,11.30
2017,10,01,16,06,4.80
2017,10,01,16,07,8.10
2017,10,01,16,08,11.30
2017,10,01,16,09,8.10
2017,10,01,16,10,6.40
2017,10,01,16,11,4.80
2017,10,01,16,12,3.20
2017,10,01,16,13,4.80
2017,10,01,16,14,8.10
2017,10,01,16,15,4.80
2017,10,01,16,16,8.10
2017,10,01,16,17,6.40
2017,10,01,16,18,6.40
2017,10,01,16,19,3.20
2017,10,01,16,20,6.40
2017,10,01,16,21,6.40
2017,10,01,16,22,4.80
2017,10,01,16,23,4.80
2017,10,01,16,24,6.40
2017,10,01,16,25,4.80
2017,10,01,16,26,6.40
2017,10,01,16,27,4.80
2017,10,01,16,28,8.10
2017,10,01,16,29,9.60
2017,10,01,16,30,8.10
2017,10,01,16,31,8.10
2017,10,01,16,32,8.10
2017,10,01,16,33,6.40
2017,10,01,16,34,8.10
2017,10,01,16,35,8.10
2017,10,01,16,36,8.10
2017,10,01,16,37,8.10
2017,10,01,16,38,6.40
2017,10,01,16,39,8.10
2017,10,01,16,40,11.30
2017,10,01,16,41,9.60
2017,10,01,16,42,9.60
2017,10,01,16,43,3.20
2017,10,01,16,44,4.80
2017,10,01,16,45,6.40
2017,10,01,16,46,8.10
2017,10,01,16,47,8.10
2017,10,01,16,48,6.40
2017,10,01,16,49,6.40
2017,10,01,16,50,8.10
2017,10,01,16,51,3.20
2017,10,01,16,52,8.10
2017,10,01,16,53,9.60
2017,10,01,16,54,6.40
2017,10,01,16,55,6.40
2017,10,01,16,56,6.40
2017,10,01,16,57,8.10
2017,10,01,16,58,6.40
2017,10,01,16,59,4.80
2017,10,01,17,00,6.40
2017,10,01,17,01,6.40
2017,10,01,17,02,4.80
2017,10,01,17,03,6.40
2017,10,01,17,04,9.60
2017,10,01,17,05,8.10
2017,10,01,17,06,6.40
2017,10,01,17,07,8.10
2017,10,01,17,08,6.40
2017,10,01,17,09,6.40
2017,10,01,17,10,6.40
2017,10,01,17,11,4.80
2017,10,01,17,12,4.80
2017,10,01,17,13,6.40
2017,10,01,17,14,4.80
2017,10,01,17,15,3.20
2017,10,01,17,16,6.40
2017,10,01,17,17,6.40
2017,10,01,17,18,6.40
2017,10,01,17,19,3.20
2017,10,01,17,20,4.80
2017,10,01,17,21,8.10
2017,10,01,17,22,3.20
2017,10,01,17,23,6.40
2017,10,01,17,24,3.20
2017,10,01,17,25,4.80
2017,10,01,17,26,8.10
2017,10,01,17,27,8.10
2017,10,01,17,28,9.60
2017,10,01,17,29,6.40
2017,10,01,17,30,8.10
2017,10,01,17,31,8.10
2017,10,01,17,32,6.40
2017,10,01,17,33,4.80
2017,10,01,17,34,4.80
2017,10,01,17,35,6.40
2017,10,01,17,36,6.40
2017,10,01,17,37,6.40
2017,10,01,17,38,6.40
2017,10,01,17,39,3.20
2017,10,01,17,40,4.80
2017,10,01,17,41,8.10
2017,10,01,17,42,6.40
2017,10,01,17,43,4.80
2017,10,01,17,44,6.40
2017,10,01,17,45,6.40
2017,10,01,17,46,6.40
2017,10,01,17,47,6.40
2017,10,01,17,48,6.40
2017,10,01,17,49,8.10
2017,10,01,17,50,9.60
2017,10,01,17,51,8.10
2017,10,01,17,52,4.80
2017,10,01,17,53,3.20
2017,10,01,17,54,4.80
2017,10,01,17,55,6.40
2017,10,01,17,56,3.20
2017,10,01,17,57,3.20
2017,10,01,17,58,4.80
2017,10,01,17,59,3.20
2017,10,01,18,00,1.60
2017,10,01,18,01,3.20
2017,10,01,18,02,4.80
2017,10,01,18,03,4.80
2017,10,01,18,04,3.20
2017,10,01,18,05,3.20
2017,10,01,18,06,4.80
2017,10,01,18,07,4.80
2017,10,01,18,08,3.20
2017,10,01,18,09,3.20
2017,10,01,18,10,4.80
2017,10,01,18,11,3.20
2017,10,01,18,12,1.60
2017,10,01,18,13,3.20
2017,10,01,18,14,1.60
2017,10,01,18,15,4.80
2017,10,01,18,16,3.20
2017,10,01,18,17,3.20
2017,10,01,18,18,1.60
2017,10,01,18,19,1.60
2017,10,01,18,20,1.60
2017,10,01,18,21,4.80
2017,10,01,18,22,4.80
2017,10,01,18,23,4.80
2017,10,01,18,24,3.20
2017,10,01,18,25,3.20
2017,10,01,18,26,4.80
2017,10,01,18,27,3.20
2017,10,01,18,28,3.20
2017,10,01,18,29,4.80
2017,10,01,18,30,3.20
2017,10,01,18,31,1.60
2017,10,01,18,32,3.20
2017,10,01,18,33,4.80
2017,10,01,18,34,1.60
2017,10,01,18,35,3.20
2017,10,01,18,36,4.80
2017,10,01,18,37,3.20
2017,10,01,18,38,3.20
2017,10,01,18,39,3.20
2017,10,01,18,40,3.20
2017,10,01,18,41,1.60
2017,10,01,18,42,4.80
2017,10,01,18,43,3.20
2017,10,01,18,44,3.20
2017,10,01,18,45,3.20
2017,10,01,18,46,1.60
2017,10,01,18,47,3.20
2017,10,01,18,48,3.20
2017,10,01,18,49,3.20
2017,10,01,18,50,4.80
2017,10,01,18,51,3.20
2017,10,01,18,52,1.60
2017,10,01,18,53,3.20
2017,10,01,18,54,3.20
2017,10,01,18,55,3.20
2017,10,01,18,56,3.20
2017,10,01,18,57,3.20
2017,10,01,18,58,4.80
2017,10,01,18,59,3.20
2017,10,01,19,00,3.20
2017,10,01,19,01,3.20
2017,10,01,19,02,1.60
2017,10,01,19,03,1.60
2017,10,01,19,04,1.60
2017,10,01,19,05,1.60
2017,10,01,19,06,1.60
2017,10,01,19,07,1.60
2017,10,01,19,08,1.60
2017,10,01,19,09,1.60
2017,10,01,19,10,1.60
2017,10,01,19,13,1.60
2017,10,01,19,14,1.60
2017,10,01,19,15,1.60
2017,10,01,19,16,1.60
2017,10,01,19,17,1.60
2017,10,01,19,18,3.20
2017,10,01,19,19,3.20
2017,10,01,19,20,3.20
2017,10,01,19,21,1.60
2017,10,01,19,23,3.20
2017,10,01,19,24,3.20
2017,10,01,19,25,1.60
2017,10,01,19,26,1.60
2017,10,01,19,27,1.60
2017,10,01,19,28,1.60
2017,10,01,19,29,1.60
2017,10,01,19,30,1.60
2017,10,01,19,31,1.60
2017,10,01,19,32,3.20
2017,10,01,19,33,1.60
2017,10,01,19,34,1.60
2017,10,01,19,35,1.60
2017,10,01,19,36,1.60
2017,10,01,19,37,1.60
2017,10,01,19,38,1.60
2017,10,01,19,39,1.60
2017,10,01,19,40,1.60
2017,10,01,19,41,1.60
2017,10,01,19,44,1.60
2017,10,01,19,46,1.60
2017,10,01,19,47,1.60
2017,10,01,19,48,1.60
2017,10,01,19,49,1.60
2017,10,01,19,50,1.60
2017,10,01,19,51,1.60
2017,10,01,19,52,1.60
2017,10,01,19,53,1.60
2017,10,01,19,57,1.60
2017,10,01,19,58,1.60
2017,10,01,19,59,1.60
2017,10,01,20,12,3.20
2017,10,01,20,13,1.60
2017,10,01,20,14,1.60
2017,10,01,20,15,3.20
2017,10,01,20,16,3.20
2017,10,01,20,17,4.80
2017,10,01,20,18,3.20
2017,10,01,20,19,3.20
2017,10,01,20,20,3.20
2017,10,01,20,21,3.20
2017,10,01,20,22,3.20
2017,10,01,20,23,1.60
2017,10,01,20,24,3.20
2017,10,01,20,25,3.20
2017,10,01,20,26,1.60
2017,10,01,20,27,1.60
2017,10,01,20,28,1.60
2017,10,01,20,30,3.20
2017,10,01,20,31,3.20
2017,10,01,20,32,1.60
2017,10,01,20,33,3.20
2017,10,01,20,34,3.20
2017,10,01,20,35,1.60
2017,10,01,20,36,1.60
2017,10,01,20,37,1.60
2017,10,01,20,38,1.60
2017,10,01,20,50,1.60
2017,10,01,20,51,1.60
2017,10,01,20,52,1.60
2017,10,01,20,53,1.60
2017,10,01,20,54,1.60
2017,10,01,20,55,1.60
2017,10,01,20,56,1.60
2017,10,01,20,57,1.60
2017,10,01,20,58,1.60
2017,10,01,20,59,1.60
2017,10,01,21,00,1.60
2017,10,01,21,02,1.60
2017,10,01,21,03,1.60
2017,10,01,21,05,1.60
2017,10,01,21,06,1.60
2017,10,01,21,07,3.20
2017,10,01,21,08,1.60
2017,10,01,21,09,1.60
2017,10,01,21,11,1.60
2017,10,01,21,12,1.60
2017,10,01,21,15,1.60
2017,10,01,21,19,1.60
2017,10,01,21,20,1.60
2017,10,01,21,21,1.60
2017,10,01,21,22,1.60
2017,10,01,21,23,1.60
2017,10,01,21,24,1.60
2017,10,01,21,25,1.60
2017,10,01,21,26,1.60
2017,10,01,21,27,1.60
2017,10,01,21,28,4.80
2017,10,01,21,29,4.80
2017,10,01,21,30,1.60
2017,10,01,21,31,3.20
2017,10,01,21,32,1.60
2017,10,01,21,33,1.60
2017,10,01,21,37,1.60
2017,10,01,21,43,1.60
2017,10,01,21,44,1.60
2017,10,01,21,45,4.80
2017,10,01,21,46,3.20
2017,10,01,21,47,3.20
2017,10,01,21,49,3.20
2017,10,01,21,50,3.20
2017,10,01,21,51,1.60
2017,10,01,21,52,1.60
2017,10,01,21,54,1.60
2017,10,01,21,55,1.60
2017,10,01,21,56,1.60
2017,10,01,21,57,1.60
2017,10,01,22,01,3.20
2017,10,01,22,02,1.60
2017,10,01,22,03,3.20
2017,10,01,22,04,3.20
2017,10,01,22,05,3.20
2017,10,01,22,06,3.20
2017,10,01,22,07,4.80
2017,10,01,22,08,3.20
2017,10,01,22,09,3.20
2017,10,01,22,10,3.20
2017,10,01,22,11,6.40
2017,10,01,22,12,4.80
2017,10,01,22,13,3.20
2017,10,01,22,14,4.80
2017,10,01,22,15,4.80
2017,10,01,22,16,4.80
2017,10,01,22,17,6.40
2017,10,01,22,18,4.80
2017,10,01,22,19,4.80
2017,10,01,22,20,4.80
2017,10,01,22,21,4.80
2017,10,01,22,22,3.20
2017,10,01,22,23,3.20
2017,10,01,22,24,4.80
2017,10,01,22,25,6.40
2017,10,01,22,26,6.40
2017,10,01,22,27,8.10
2017,10,01,22,28,6.40
2017,10,01,22,29,3.20
2017,10,01,22,30,3.20
2017,10,01,22,31,3.20
2017,10,01,22,32,4.80
2017,10,01,22,33,6.40
2017,10,01,22,34,6.40
2017,10,01,22,35,4.80
2017,10,01,22,36,6.40
2017,10,01,22,37,3.20
2017,10,01,22,38,6.40
2017,10,01,22,39,4.80
2017,10,01,22,40,3.20
2017,10,01,22,41,6.40
2017,10,01,22,42,4.80
2017,10,01,22,43,3.20
2017,10,01,22,44,4.80
2017,10,01,22,45,4.80
2017,10,01,22,46,4.80
2017,10,01,22,47,3.20
2017,10,01,22,48,3.20
2017,10,01,22,49,4.80
2017,10,01,22,50,3.20
2017,10,01,22,51,3.20
2017,10,01,22,52,3.20
2017,10,01,22,53,1.60
2017,10,01,22,54,4.80
2017,10,01,22,55,6.40
2017,10,01,22,56,1.60
2017,10,01,22,57,4.80
2017,10,01,22,58,3.20
2017,10,01,22,59,3.20
2017,10,01,23,00,1.60
2017,10,01,23,01,3.20
2017,10,01,23,02,3.20
2017,10,01,23,03,3.20
2017,10,01,23,04,3.20
2017,10,01,23,05,3.20
2017,10,01,23,06,1.60
2017,10,01,23,07,3.20
2017,10,01,23,08,1.60
2017,10,01,23,09,1.60
2017,10,01,23,10,1.60
2017,10,01,23,11,1.60
2017,10,01,23,12,1.60
2017,10,01,23,13,3.20
2017,10,01,23,14,3.20
2017,10,01,23,15,4.80
2017,10,01,23,16,4.80
2017,10,01,23,17,3.20
2017,10,01,23,18,3.20
2017,10,01,23,19,3.20
2017,10,01,23,20,1.60
2017,10,01,23,21,3.20
2017,10,01,23,22,4.80
2017,10,01,23,23,3.20
2017,10,01,23,24,3.20
2017,10,01,23,25,3.20
2017,10,01,23,26,3.20
2017,10,01,23,27,1.60
2017,10,01,23,29,1.60
2017,10,01,23,30,1.60
2017,10,01,23,31,3.20
2017,10,01,23,32,1.60
2017,10,01,23,33,3.20
2017,10,01,23,34,3.20
2017,10,01,23,35,3.20
2017,10,01,23,36,1.60
2017,10,01,23,37,1.60
2017,10,01,23,38,1.60
2017,10,01,23,42,1.60
2017,10,01,23,43,1.60
2017,10,01,23,44,1.60
2017,10,01,23,45,3.20
2017,10,01,23,46,3.20
2017,10,01,23,47,1.60
2017,10,01,23,48,1.60
2017,10,01,23,49,1.60
2017,10,01,23,50,1.60
2017,10,01,23,51,1.60
2017,10,01,23,52,1.60
2017,10,01,23,53,1.60
2017,10,01,23,58,1.60
2017,10,01,23,59,1.60
